DW3101 Weather Reports


Display with metric or nautical units.
time (UTC)temp
F
wind
direction
speed
MPH
gust
MPH
rain 1hr
in
rain 24hr
in
rain mn
in
humidity
%
barometer
mb
20260507172006 66 196 4.0 7.0 0.00 0.00 0.00 78 1016.8
20260507171525 66 229 5.0 7.0 0.00 0.00 0.00 78 1016.8
20260507171010 66 237 4.0 7.0 0.00 0.00 0.00 80 1016.8
20260507170505 65 273 2.0 6.0 0.00 0.00 0.00 81 1016.8
20260507170025 64 239 3.0 6.0 0.00 0.00 0.00 81 1016.8
20260507165507 64 246 2.0 7.0 0.00 0.00 0.00 80 1016.8
20260507165005 64 225 3.0 7.0 0.00 0.00 0.00 80 1016.8
20260507164520 65 279 3.0 6.0 0.00 0.00 0.00 80 1016.8
20260507164007 64 317 3.0 7.0 0.00 0.00 0.00 80 1016.8
20260507163507 64 259 2.0 7.0 0.00 0.00 0.00 81 1017.0
20260507163022 64 265 3.0 7.0 0.00 0.00 0.00 81 1017.0
20260507162508 64 275 2.0 6.0 0.00 0.00 0.00 82 1017.0
20260507162004 64 333 2.0 6.0 0.00 0.00 0.00 83 1017.0
20260507161525 64 311 1.0 4.0 0.00 0.00 0.00 83 1016.8
20260507161005 63 282 1.0 4.0 0.00 0.00 0.00 84 1016.9
20260507160504 63 306 0.0 5.0 0.00 0.00 0.00 84 1016.9
20260507160031 63 316 2.0 6.0 0.00 0.00 0.00 84 1017.0
20260507155504 63 320 1.0 6.0 0.00 0.00 0.00 84 1017.1
20260507155003 63 311 3.0 5.0 0.00 0.00 0.00 85 1017.0
20260507154522 62 353 3.0 5.0 0.00 0.00 0.00 85 1017.1
20260507154011 62 347 1.0 5.0 0.00 0.00 0.00 85 1017.1
20260507153506 62 347 2.0 5.0 0.00 0.00 0.00 85 1017.1
20260507153025 62 347 2.0 4.0 0.00 0.00 0.00 86 1017.1
20260507152508 62 347 2.0 4.0 0.00 0.00 0.00 86 1017.0
20260507152013 62 294 1.0 3.0 0.00 0.00 0.00 87 1017.0
20260507151522 62 346 1.0 3.0 0.00 0.00 0.00 87 1017.0
20260507151008 62 346 1.0 3.0 0.00 0.00 0.00 87 1017.0
20260507150508 61 346 1.0 3.0 0.00 0.00 0.00 88 1017.1
20260507150022 61 215 0.0 4.0 0.00 0.00 0.00 88 1017.0
20260507145505 61 240 1.0 4.0 0.00 0.00 0.00 88 1017.0
20260507145007 61 233 1.0 4.0 0.00 0.00 0.00 88 1017.0
20260507144503 61 244 0.0 2.0 0.00 0.00 0.00 88 1017.0
20260507144005 61 282 0.0 2.0 0.00 0.00 0.00 89 1017.0
20260507143503 60 342 0.0 2.0 0.00 0.00 0.00 88 1017.0
20260507143006 60 342 1.0 2.0 0.00 0.00 0.00 88 1016.8
20260507142509 60 342 0.0 2.0 0.00 0.00 0.00 89 1016.8
20260507142004 60 342 0.0 2.0 0.00 0.00 0.00 89 1016.7
20260507141504 60 342 0.0 2.0 0.00 0.00 0.00 89 1016.7
20260507141012 60 342 0.0 2.0 0.00 0.00 0.00 89 1016.7
20260507140503 60 342 0.0 2.0 0.00 0.00 0.00 89 1016.6
20260507140007 60 342 0.0 2.0 0.00 0.00 0.00 89 1016.6
20260507135507 60 342 0.0 2.0 0.00 0.00 0.00 89 1016.5
20260507135003 60 279 0.0 2.0 0.00 0.00 0.00 89 1016.5
20260507134502 60 279 0.0 2.0 0.00 0.00 0.00 89 1016.5
20260507134007 60 200 0.0 2.0 0.00 0.00 0.00 89 1016.4
20260507133505 60 200 0.0 2.0 0.00 0.00 0.00 89 1016.4
20260507133007 60 340 0.0 1.0 0.00 0.00 0.00 89 1016.3
20260507132505 59 340 0.0 1.0 0.00 0.00 0.00 89 1016.4
20260507132007 59 340 0.0 0.0 0.00 0.00 0.00 89 1016.3
20260507131504 59 340 0.0 1.0 0.00 0.00 0.00 89 1016.4
20260507131007 59 340 0.0 1.0 0.00 0.00 0.00 89 1016.4
20260507130503 60 340 0.0 0.0 0.00 0.00 0.00 89 1016.4
20260507130010 60 340 0.0 0.0 0.00 0.00 0.00 89 1016.4
20260507125510 60 340 0.0 0.0 0.00 0.00 0.00 89 1016.2
20260507125004 60 340 0.0 1.0 0.00 0.00 0.00 89 1016.3
20260507124503 60 340 0.0 1.0 0.00 0.00 0.00 89 1016.3
20260507124007 60 340 0.0 1.0 0.00 0.00 0.00 89 1016.2
20260507123511 60 340 0.0 2.0 0.00 0.00 0.00 89 1016.2
20260507123003 60 340 0.0 2.0 0.00 0.00 0.00 89 1016.1
20260507122507 60 340 0.0 2.0 0.00 0.00 0.00 89 1016.1
20260507122006 60 340 0.0 2.0 0.00 0.00 0.00 89 1016.2
20260507121503 60 340 0.0 2.0 0.00 0.00 0.00 89 1016.2
20260507121009 60 340 0.0 2.0 0.00 0.00 0.00 89 1016.2
20260507120502 60 340 1.0 2.0 0.00 0.00 0.00 89 1016.1
20260507120010 60 340 0.0 1.0 0.00 0.00 0.00 89 1016.1
20260507115508 60 340 0.0 3.0 0.00 0.00 0.00 89 1016.1
20260507115011 60 340 0.0 3.0 0.00 0.00 0.00 89 1016.1
20260507114504 60 340 0.0 2.0 0.00 0.00 0.00 89 1016.1
20260507114007 60 340 0.0 2.0 0.00 0.00 0.00 89 1016.2
20260507113504 60 340 0.0 1.0 0.00 0.00 0.00 89 1016.2
20260507113027 60 340 0.0 1.0 0.00 0.00 0.00 89 1016.1
20260507112511 60 340 0.0 0.0 0.00 0.00 0.00 89 1016.2
20260507112004 60 340 0.0 1.0 0.00 0.00 0.00 89 1016.2
20260507111523 60 340 0.0 1.0 0.00 0.00 0.00 89 1016.2
20260507111006 60 340 0.0 2.0 0.00 0.00 0.00 89 1016.3
20260507110503 60 340 0.0 2.0 0.00 0.00 0.00 89 1016.2
20260507110030 60 340 1.0 2.0 0.00 0.00 0.00 89 1016.2
20260507105506 60 340 0.0 2.0 0.00 0.00 0.00 89 1016.3
20260507105004 60 335 1.0 2.0 0.00 0.00 0.00 89 1016.3
20260507104524 60 335 1.0 3.0 0.00 0.00 0.00 89 1016.4
20260507104008 60 335 1.0 3.0 0.00 0.00 0.00 89 1016.3
20260507103504 60 313 1.0 3.0 0.00 0.00 0.00 89 1016.4
20260507103025 60 318 1.0 3.0 0.00 0.00 0.00 89 1016.5
20260507102504 60 339 0.0 5.0 0.00 0.00 0.00 89 1016.5
20260507102006 60 339 1.0 5.0 0.00 0.00 0.00 89 1016.5
20260507101522 60 325 0.0 2.0 0.00 0.00 0.00 89 1016.5
20260507101008 60 344 0.0 0.0 0.00 0.00 0.00 89 1016.5
20260507100504 60 344 0.0 0.0 0.00 0.00 0.00 89 1016.6
20260507100024 60 344 0.0 1.0 0.00 0.00 0.00 89 1016.6
20260507095506 60 344 0.0 2.0 0.00 0.00 0.00 89 1016.7
20260507095004 60 344 0.0 2.0 0.00 0.00 0.00 89 1016.7
20260507094525 60 344 0.0 3.0 0.00 0.00 0.00 89 1016.8
20260507094006 60 344 0.0 3.0 0.00 0.00 0.00 89 1016.7
20260507093503 60 344 0.0 3.0 0.00 0.00 0.00 89 1016.8
20260507093022 60 344 1.0 4.0 0.00 0.00 0.00 89 1016.8
20260507092512 60 342 1.0 4.0 0.00 0.00 0.00 89 1016.8
20260507092004 60 297 2.0 4.0 0.00 0.00 0.00 89 1016.8
20260507091524 60 311 0.0 3.0 0.00 0.00 0.00 89 1016.8
20260507091007 60 311 1.0 3.0 0.00 0.00 0.00 89 1016.9
20260507090503 60 311 0.0 3.0 0.00 0.00 0.00 89 1017.0
20260507090024 60 311 1.0 3.0 0.00 0.00 0.00 89 1017.0
20260507085507 60 327 1.0 3.0 0.00 0.00 0.00 88 1017.1
20260507085003 60 339 1.0 6.0 0.00 0.00 0.00 88 1017.2
20260507084524 60 330 3.0 6.0 0.00 0.00 0.00 88 1017.2
20260507084007 60 339 0.0 3.0 0.00 0.00 0.00 88 1017.2
20260507083503 60 330 2.0 3.0 0.00 0.00 0.00 88 1017.2
20260507083028 60 311 0.0 3.0 0.00 0.00 0.00 88 1017.2
20260507082507 60 311 0.0 3.0 0.00 0.00 0.00 88 1017.3
20260507082002 60 304 1.0 3.0 0.00 0.00 0.00 88 1017.4
20260507081533 60 309 1.0 3.0 0.00 0.00 0.00 88 1017.4
20260507081009 60 341 0.0 3.0 0.00 0.00 0.00 88 1017.5
20260507080511 60 325 1.0 3.0 0.00 0.00 0.00 88 1017.5
20260507080005 60 325 1.0 3.0 0.00 0.00 0.00 88 1017.5
20260507075502 60 309 1.0 3.0 0.00 0.00 0.00 88 1017.6
20260507075006 60 328 1.0 3.0 0.00 0.00 0.00 88 1017.5
20260507074503 60 313 0.0 5.0 0.00 0.00 0.00 88 1017.6
20260507074004 60 323 1.0 5.0 0.00 0.00 0.00 88 1017.6
20260507073503 60 316 2.0 4.0 0.00 0.00 0.00 87 1017.5
20260507073004 60 329 2.0 4.0 0.00 0.00 0.00 87 1017.6
20260507072503 60 338 1.0 4.0 0.00 0.00 0.00 87 1017.7
20260507072004 60 332 3.0 4.0 0.00 0.00 0.00 87 1017.6
20260507071505 60 313 2.0 4.0 0.00 0.00 0.00 87 1017.6
20260507071004 60 299 2.0 4.0 0.00 0.00 0.00 87 1017.6
20260507070507 60 292 2.0 4.0 0.00 0.00 0.00 87 1017.6
20260507070009 60 294 1.0 4.0 0.00 0.00 0.00 87 1017.7
20260507065509 60 312 1.0 4.0 0.00 0.00 0.00 87 1017.7
20260507065002 60 305 1.0 4.0 0.00 0.00 0.00 88 1017.7
20260507064502 60 299 1.0 4.0 0.00 0.00 0.00 88 1017.7
20260507064003 60 316 1.0 4.0 0.00 0.00 0.00 88 1017.8
20260507063505 60 313 1.0 5.0 0.00 0.00 0.00 88 1017.9
20260507063004 60 331 1.0 5.0 0.00 0.00 0.00 88 1017.9
20260507062503 60 303 2.0 4.0 0.00 0.00 0.00 88 1017.8
20260507062006 60 329 2.0 5.0 0.00 0.00 0.00 89 1017.8
20260507061506 60 323 2.0 5.0 0.00 0.00 0.00 89 1017.8
20260507061004 60 306 2.0 5.0 0.00 0.00 0.00 89 1017.8
20260507060503 60 317 1.0 5.0 0.00 0.00 0.00 89 1017.8
20260507060004 60 311 1.0 5.0 0.00 0.00 0.00 89 1017.8
20260507055507 60 342 3.0 5.0 0.00 0.00 0.00 89 1017.8
20260507055003 60 349 3.0 5.0 0.00 0.00 0.00 89 1017.8
20260507054504 60 349 1.0 3.0 0.00 0.00 0.00 89 1017.8
20260507054009 60 349 1.0 3.0 0.00 0.00 0.00 89 1017.7
20260507053509 60 349 0.0 2.0 0.00 0.00 0.00 89 1017.8
20260507053003 60 349 0.0 5.0 0.00 0.00 0.00 89 1017.8
20260507052503 60 349 1.0 5.0 0.00 0.00 0.00 89 1017.8
20260507052004 60 349 2.0 6.0 0.00 0.00 0.00 89 1017.8
20260507051503 60 349 3.0 7.0 0.00 0.00 0.00 89 1017.7
20260507051004 60 348 4.0 7.0 0.00 0.00 0.00 89 1017.7
20260507050506 60 349 4.0 7.0 0.00 0.00 0.00 89 1017.7
20260507050008 60 351 4.0 7.0 0.00 0.00 0.00 89 1017.8
20260507045510 60 352 4.0 7.0 0.00 0.00 0.00 89 1017.8
20260507045004 60 346 4.0 7.0 0.00 0.00 0.00 89 1017.8
20260507044504 60 348 4.0 7.0 0.00 0.00 0.00 89 1017.7
20260507044006 60 348 3.0 6.0 0.00 0.00 0.00 89 1017.7
20260507043502 60 348 3.0 6.0 0.00 0.00 0.00 89 1017.7
20260507043004 61 348 2.0 6.0 0.00 0.00 0.00 89 1017.6
20260507042507 60 348 4.0 6.0 0.00 0.00 0.00 89 1017.6
20260507042003 61 347 2.0 7.0 0.00 0.00 0.00 89 1017.6
20260507041532 61 346 4.0 7.0 0.00 0.00 0.00 88 1017.6
20260507041007 61 346 3.0 6.0 0.00 0.00 0.00 88 1017.6
20260507040506 61 342 3.0 6.0 0.00 0.00 0.00 88 1017.5
20260507040013 61 345 3.0 5.0 0.00 0.00 0.00 88 1017.5
20260507035506 61 342 3.0 6.0 0.00 0.00 0.00 87 1017.5
20260507035005 61 344 3.0 6.0 0.00 0.00 0.00 87 1017.5
20260507034516 61 337 2.0 5.0 0.00 0.00 0.00 87 1017.5
20260507034006 61 301 2.0 6.0 0.00 0.00 0.00 87 1017.4
20260507033503 61 308 3.0 6.0 0.00 0.00 0.00 87 1017.3
20260507033016 61 306 3.0 5.0 0.00 0.00 0.00 87 1017.3
20260507032507 61 321 2.0 5.0 0.00 0.00 0.00 86 1017.3
20260507032005 61 278 2.0 5.0 0.00 0.00 0.00 86 1017.3
20260507031519 61 305 3.0 5.0 0.00 0.00 0.00 86 1017.2
20260507031008 61 316 2.0 5.0 0.00 0.00 0.00 86 1017.1
20260507030502 61 277 2.0 6.0 0.00 0.00 0.00 86 1017.1
20260507030016 61 325 3.0 8.0 0.00 0.00 0.00 85 1017.1
20260507025508 61 321 2.0 8.0 0.00 0.00 0.00 85 1017.0
20260507025002 62 346 5.0 8.0 0.00 0.00 0.00 85 1016.8
20260507024519 62 321 3.0 6.0 0.00 0.00 0.00 85 1016.7
20260507024011 62 338 3.0 7.0 0.00 0.00 0.00 84 1016.7
20260507023502 62 302 3.0 7.0 0.00 0.00 0.00 84 1016.7
20260507023020 62 323 3.0 7.0 0.00 0.00 0.00 84 1016.7
20260507022509 62 296 2.0 8.0 0.00 0.00 0.00 83 1016.7
20260507022003 62 333 3.0 9.0 0.00 0.00 0.00 83 1016.8
20260507021521 63 346 6.0 9.0 0.00 0.00 0.00 83 1016.7
20260507021007 63 344 3.0 9.0 0.00 0.00 0.00 82 1016.6
20260507020506 63 342 3.0 8.0 0.00 0.00 0.00 82 1016.6
20260507020020 63 336 3.0 10.0 0.00 0.00 0.00 81 1016.6
20260507015506 63 344 5.0 10.0 0.00 0.00 0.00 81 1016.5
20260507015002 64 346 3.0 7.0 0.00 0.00 0.00 81 1016.5
20260507014530 64 323 4.0 7.0 0.00 0.00 0.00 80 1016.6
20260507014006 64 313 4.0 7.0 0.00 0.00 0.00 80 1016.6
20260507013501 65 131 3.0 8.0 0.00 0.00 0.00 79 1016.5
20260507013035 65 326 3.0 8.0 0.00 0.00 0.00 79 1016.5
20260507012506 65 320 2.0 6.0 0.00 0.00 0.00 79 1016.5
20260507012003 65 332 3.0 7.0 0.00 0.00 0.00 78 1016.6
20260507011503 65 319 3.0 7.0 0.00 0.00 0.00 78 1016.6
20260507011001 65 308 2.0 9.0 0.00 0.00 0.00 79 1016.6
20260507010504 66 338 3.0 10.0 0.00 0.00 0.00 78 1016.6
20260507010024 66 292 5.0 10.0 0.00 0.00 0.00 78 1016.5
20260507005502 66 8 3.0 8.0 0.00 0.00 0.00 78 1016.5
20260507005004 66 290 3.0 10.0 0.00 0.00 0.00 78 1016.5
20260507004502 66 249 5.0 10.0 0.00 0.00 0.00 77 1016.4
20260507004002 66 247 6.0 10.0 0.00 0.00 0.00 77 1016.4
20260507003503 66 283 5.0 11.0 0.00 0.00 0.00 77 1016.4
20260507003002 66 272 5.0 11.0 0.00 0.00 0.00 76 1016.4
20260507002502 67 275 5.0 11.0 0.00 0.00 0.00 76 1016.4
20260507002004 67 283 6.0 11.0 0.00 0.00 0.00 76 1016.3
20260507001503 67 275 5.0 10.0 0.00 0.00 0.00 76 1016.3
20260507001006 67 251 4.0 11.0 0.00 0.00 0.00 75 1016.2
20260507000506 67 328 3.0 11.0 0.00 0.00 0.00 75 1016.2
20260507000012 67 256 3.0 11.0 0.00 0.00 0.00 76 1016.2
20260506235504 67 271 4.0 11.0 0.00 0.00 0.00 75 1016.2
20260506235005 67 240 6.0 11.0 0.00 0.00 0.00 74 1016.1
20260506234504 67 275 5.0 11.0 0.00 0.00 0.00 75 1016.2
20260506234007 67 278 5.0 11.0 0.00 0.00 0.00 74 1016.2
20260506233506 68 271 5.0 11.0 0.00 0.00 0.00 74 1016.2
20260506233004 68 262 5.0 10.0 0.00 0.00 0.00 74 1016.2
20260506232506 68 278 4.0 10.0 0.00 0.00 0.00 74 1016.2
20260506232003 68 299 5.0 10.0 0.00 0.00 0.00 73 1016.2
20260506231503 68 313 3.0 10.0 0.00 0.00 0.00 73 1016.3
20260506231007 68 301 3.0 11.0 0.00 0.00 0.00 73 1016.5
20260506230504 68 279 5.0 12.0 0.00 0.00 0.00 72 1016.4
20260506230004 68 306 3.0 12.0 0.00 0.00 0.00 72 1016.4
20260506225509 69 230 4.0 11.0 0.00 0.00 0.00 71 1016.5
20260506225003 69 356 4.0 13.0 0.00 0.00 0.00 72 1016.5
20260506224503 69 282 4.0 13.0 0.00 0.00 0.00 72 1016.6
20260506224004 69 294 3.0 10.0 0.00 0.00 0.00 72 1016.7
20260506223503 69 263 4.0 12.0 0.00 0.00 0.00 71 1016.7
20260506223005 68 328 4.0 12.0 0.00 0.00 0.00 72 1016.7
20260506222507 69 292 5.0 11.0 0.00 0.00 0.00 72 1016.6
20260506222004 68 287 6.0 13.0 0.00 0.00 0.00 72 1016.7
20260506221504 69 282 5.0 13.0 0.00 0.00 0.00 70 1016.9
20260506221009 69 285 5.0 12.0 0.00 0.00 0.00 71 1016.8
20260506220503 68 261 5.0 12.0 0.00 0.00 0.00 71 1017.0
20260506220004 68 292 6.0 12.0 0.00 0.00 0.00 71 1017.0
20260506215512 68 268 5.0 14.0 0.00 0.00 0.00 71 1017.1
20260506215006 68 293 5.0 14.0 0.00 0.00 0.00 71 1017.2
20260506214503 68 278 7.0 16.0 0.00 0.00 0.00 71 1017.1
20260506214008 68 264 5.0 16.0 0.00 0.00 0.00 71 1017.1
20260506213504 68 325 5.0 13.0 0.00 0.00 0.00 72 1017.1
20260506213003 68 338 7.0 15.0 0.00 0.00 0.00 71 1017.2
20260506212509 68 261 9.0 15.0 0.00 0.00 0.00 70 1017.2
20260506212004 68 269 8.0 14.0 0.00 0.00 0.00 70 1017.2
20260506211503 68 281 6.0 16.0 0.00 0.00 0.00 70 1017.3
20260506211005 69 262 7.0 16.0 0.00 0.00 0.00 69 1017.3
20260506210505 69 318 5.0 15.0 0.00 0.00 0.00 69 1017.3
20260506210003 69 298 7.0 15.0 0.00 0.00 0.00 68 1017.3
20260506205506 69 315 5.0 13.0 0.00 0.00 0.00 68 1017.4
20260506205004 69 252 6.0 13.0 0.00 0.00 0.00 67 1017.4
20260506204520 70 272 3.0 11.0 0.00 0.00 0.00 68 1017.4
20260506204007 70 275 5.0 11.0 0.00 0.00 0.00 67 1017.4
20260506203503 70 125 4.0 11.0 0.00 0.00 0.00 67 1017.5
20260506203022 70 272 3.0 11.0 0.00 0.00 0.00 66 1017.6
20260506202508 70 287 4.0 14.0 0.00 0.00 0.00 67 1017.6
20260506202006 70 342 3.0 14.0 0.00 0.00 0.00 66 1017.6
20260506201522 71 293 4.0 13.0 0.00 0.00 0.00 67 1017.6
20260506201004 71 292 6.0 13.0 0.00 0.00 0.00 65 1017.7
20260506200504 71 242 5.0 9.0 0.00 0.00 0.00 65 1017.7
20260506200022 71 216 3.0 9.0 0.00 0.00 0.00 65 1017.8
20260506195508 71 233 5.0 8.0 0.00 0.00 0.00 65 1017.9
20260506195004 71 212 3.0 11.0 0.00 0.00 0.00 65 1018.0
20260506194522 71 238 5.0 11.0 0.00 0.00 0.00 65 1018.1
20260506194009 71 236 5.0 8.0 0.00 0.00 0.00 65 1018.1
20260506193506 71 243 4.0 9.0 0.00 0.00 0.00 65 1018.1
20260506193022 71 125 4.0 9.0 0.00 0.00 0.00 65 1018.1
20260506192509 71 244 5.0 8.0 0.00 0.00 0.00 64 1018.1
20260506192004 71 216 4.0 8.0 0.00 0.00 0.00 64 1018.1
20260506191520 71 225 3.0 8.0 0.00 0.00 0.00 65 1018.2
20260506191007 70 227 3.0 8.0 0.00 0.00 0.00 66 1018.3
20260506190504 70 240 3.0 10.0 0.00 0.00 0.00 66 1018.3
20260506190024 70 239 4.0 10.0 0.00 0.00 0.00 66 1018.3
20260506185506 69 224 3.0 9.0 0.00 0.00 0.00 68 1018.3
20260506185003 69 230 2.0 7.0 0.00 0.00 0.00 68 1018.4
20260506184520 69 226 3.0 7.0 0.00 0.00 0.00 68 1018.4
20260506184007 68 219 3.0 7.0 0.00 0.00 0.00 68 1018.4
20260506183503 68 125 2.0 9.0 0.00 0.00 0.00 68 1018.5
20260506183024 68 259 4.0 9.0 0.00 0.00 0.00 68 1018.5
20260506182506 68 268 4.0 7.0 0.00 0.00 0.00 69 1018.5
20260506182002 67 233 4.0 7.0 0.00 0.00 0.00 69 1018.5
20260506181529 67 249 3.0 8.0 0.00 0.00 0.00 69 1018.5
20260506181007 67 273 3.0 8.0 0.00 0.00 0.00 69 1018.5
20260506180503 67 181 3.0 7.0 0.00 0.00 0.00 69 1018.6
20260506180032 67 125 3.0 6.0 0.00 0.00 0.00 70 1018.6
20260506175511 67 268 3.0 8.0 0.00 0.00 0.00 71 1018.6
20260506175006 66 284 4.0 9.0 0.00 0.00 0.00 70 1018.6
20260506174519 66 285 5.0 9.0 0.00 0.00 0.00 70 1018.6
20260506174009 66 234 2.0 7.0 0.00 0.00 0.00 71 1018.7
20260506173504 66 247 3.0 7.0 0.00 0.00 0.00 71 1018.7
20260506173021 66 256 4.0 7.0 0.00 0.00 0.00 71 1018.9
20260506172507 65 338 4.0 8.0 0.00 0.00 0.00 72 1018.9